Location: Pedholt
(56.0260°N, 10.2097°E)
Time: 06:16:52
(UTC+00:00)

GENESIS II - Pass Details

Date: 14 July 2020
Orbit: 488 x 540 km, 64.5° (Epoch: 14 August)

Event Time Altitude Azimuth Distance (km) Brightness Sun altitude
Exits shadow 00:01:50 - 234° (SW) 1,871 6.6 -11.9°
Reaches altitude 10° 00:02:00 10° 234° (SW) 1,802 6.5 -11.9°
Maximum altitude 00:06:03 77° 320° (NW) 562 4.4 -11.9°
Drops below altitude 10° 00:10:08 10° 48° (NE) 1,810 7.8 -11.8°
Sets 00:12:20 0° 50° (NE) 2,701 8.7 -11.7°
